Location: La Oliva
(42.2466°N, 2.9955°E)
Time: 11:32:04
(UTC+00:00)

Cosmos 614 Rocket - Pass Details

Date: 22 April 2021
Orbit: 734 x 762 km, 74.1° (Epoch: 10 May)

Event Time Altitude Azimuth Distance (km) Brightness Sun altitude
Rises 19:17:22 0° 189° (S) 3,183 7.0 -7.7°
Reaches altitude 10° 19:19:44 10° 185° (S) 2,259 6.2 -8.1°
Maximum altitude 19:24:47 62° 106° (ESE) 836 3.9 -8.9°
Drops below altitude 10° 19:29:49 10° 26° (NNE) 2,257 6.5 -9.8°
Sets 19:32:11 0° 24° (NNE) 3,180 7.3 -10.2°
